Regional Weather Roundup
Issued by NWS

Home | Current Version | Previous Version | Text Only | Print | Product List | Glossary On
Versions: 1 2 3 4 5 6 7 8 9 10 11 12 13 14 15 16 17 18 19 20 21 22 23 24 25 26 27 28 29 30 31 32 33 34 35 36 37 38 39 40 41 42 43 44 45 46 47 48 49 50
000
ASUS43 KTOP 301308
RWRKS

WEATHER ROUNDUP FOR KANSAS
NATIONAL WEATHER SERVICE GOODLAND KS
800 AM CDT MON MAY 30 2016

NOTE:  "FAIR" INDICATES FEW OR NO CLOUDS BELOW 12,000 FEET WITH NO
SIGNIFICANT WEATHER AND/OR OBSTRUCTIONS TO VISIBILITY.

KSZ001>006-013>018-027>032-041>047-301400-
NORTHWEST KANSAS

CITY           SKY/WX    TMP DP  RH WIND       PRES   REMARKS
GOODLAND       SUNNY     56  50  80 S9        30.00S
HAYS           MOSUNNY   59  48  67 S5        30.03R
HILL CITY      CLOUDY    57  53  86 CALM      30.02R
$$

KSZ061>065-074>080-084>089-301400-
SOUTHWEST KANSAS

CITY           SKY/WX    TMP DP  RH WIND       PRES   REMARKS
DODGE CITY     SUNNY     58  53  84 S5        30.04S
ELKHART          N/A     51  48  89 SE9         N/A
GARDEN CITY    SUNNY     55  52  89 SW9       30.03S
GREAT BEND     SUNNY     63  52  67 SE3       30.03R
LIBERAL        SUNNY     54  48  82 S10       30.08R
PRATT          SUNNY     58  52  81 W5        30.04S
$$

KSZ066>073-081>083-090>101-301400-
SOUTHEAST KANSAS

CITY           SKY/WX    TMP DP  RH WIND       PRES   REMARKS
CHANUTE        CLOUDY    68  63  84 S3        30.04S
COFFEYVILLE    PTSUNNY   67  64  90 S3        30.04S
HUTCHINSON     SUNNY     67  61  81 MISG      30.03R
MEDICINE LODGE   N/A     62  56  80 CALM      30.04R
NEWTON         CLOUDY    64  57  77 S5        30.07S
PARSONS        PTSUNNY   69  64  84 CALM      30.05S
WICHITA INTL   CLOUDY    65  58  78 SW5       30.03S
WICHITA JABRA  MOSUNNY   65  60  84 SW8       30.04S
WICHITA MCCONL MOSUNNY   66  58  75 W8        30.04S
WINFIELD       CLOUDY    65  62  90 S6        30.06R
$$

KSZ007>012-019>026-033>040-048>060-102>105-301400-
NORTHEAST KANSAS

CITY           SKY/WX    TMP DP  RH WIND       PRES   REMARKS
CONCORDIA      SUNNY     66  59  78 SE3       30.02S
EMPORIA        MOSUNNY   65  64  97 CALM      30.03F
LAWRENCE       CLOUDY    67  65  93 E3        30.05S
MANHATTAN      SUNNY     67  62  84 CALM      30.03R
MARYSVILLE     SUNNY     68  61  77 S6        30.02S
OLATHE IND     CLOUDY    69  65  86 CALM      30.06S
OLATHE EXE     CLOUDY    68  64  87 CALM      30.06S
SALINA         SUNNY     66  61  84 CALM      30.03R
TOPEKA BILLARD MOSUNNY   68  66  93 E5        30.04S
TOPEKA FORBES  MOSUNNY   69  66  90 S6        30.04S
$$




USA.gov is the U.S. government's official web portal to all federal, state and local government web resources and services.